{"data":{"norad_id":67965,"epoch":"2026-05-25T00:22:38.152704Z","epoch_age_seconds":73027,"freshness":"FRESH","line1":"1 67965U 26038E   26145.01571936  .00007961  00000+0  24859-3 0  9995","line2":"2 67965  97.2836 155.0039 0001940 113.0255 247.1193 15.33454470 14934","mean_motion":15.3345447,"eccentricity":0.000194,"inclination_deg":97.2836,"raan_deg":155.0039,"arg_perigee_deg":113.0255,"mean_anomaly_deg":247.1193,"bstar":0.00024859,"rev_number":1493,"period_min":93.905624729765,"perigee_km":464.18733007813,"apogee_km":466.84266705357,"semimajor_km":6843.6519985658,"source":"CELESTRAK","updated_at":"2026-05-25T13:38:21.773567Z"}}